Time,TemperatureF,DewpointF,PressureIn,WindDirection,WindDirectionDegrees,WindSpeedMPH,WindSpeedGustMPH,Humidity,HourlyPrecipIn,Conditions,Clouds,dailyrainin,SoftwareType,DateUTC
2013-02-28 00:02:00,34.0,33.0,29.52,NNE,22,0.0,3.0,95,0.01,,,0.33,,2013-02-28 05:02:00,
2013-02-28 00:11:00,34.0,33.0,29.52,NNE,22,0.0,3.0,95,0.01,,,0.33,,2013-02-28 05:11:00,
2013-02-28 00:22:00,34.0,33.0,29.52,NNE,16,0.0,1.0,95,0.01,,,0.33,,2013-02-28 05:22:00,
2013-02-28 00:32:00,33.0,32.0,29.52,North,11,1.0,3.0,95,0.00,,,0.33,,2013-02-28 05:32:00,
2013-02-28 00:42:00,33.0,32.0,29.52,North,11,1.0,3.0,95,0.00,,,0.33,,2013-02-28 05:42:00,
2013-02-28 00:52:00,33.0,32.0,29.52,NE,51,0.0,3.0,95,0.00,,,0.33,,2013-02-28 05:52:00,
2013-02-28 01:01:00,34.0,33.0,29.52,ENE,70,0.0,2.0,95,0.00,,,0.33,,2013-02-28 06:01:00,
2013-02-28 01:11:00,34.0,33.0,29.52,ENE,70,0.0,2.0,95,0.00,,,0.33,,2013-02-28 06:11:00,
2013-02-28 01:22:00,34.0,33.0,29.52,NW,323,0.0,2.0,95,0.00,,,0.33,,2013-02-28 06:22:00,
2013-02-28 01:32:00,34.0,33.0,29.52,NNE,15,0.0,0.0,95,0.00,,,0.33,,2013-02-28 06:32:00,
2013-02-28 01:42:00,34.0,33.0,29.52,NNE,15,0.0,0.0,95,0.00,,,0.33,,2013-02-28 06:42:00,
2013-02-28 01:52:00,33.0,32.0,29.53,NNW,341,0.0,2.0,95,0.00,,,0.33,,2013-02-28 06:52:00,
2013-02-28 02:01:00,33.0,32.0,29.52,North,350,0.0,1.0,95,0.00,,,0.33,,2013-02-28 07:01:00,
2013-02-28 02:11:00,33.0,32.0,29.52,North,350,0.0,1.0,95,0.00,,,0.33,,2013-02-28 07:11:00,
2013-02-28 02:21:00,33.0,32.0,29.53,NNW,329,0.0,2.0,95,0.01,,,0.34,,2013-02-28 07:21:00,
2013-02-28 02:32:00,33.0,32.0,29.54,NW,309,2.0,3.0,95,0.01,,,0.34,,2013-02-28 07:32:00,
2013-02-28 02:42:00,33.0,32.0,29.54,NW,309,2.0,3.0,95,0.01,,,0.34,,2013-02-28 07:42:00,
2013-02-28 02:52:00,33.0,32.0,29.53,NNE,13,1.0,4.0,95,0.01,,,0.34,,2013-02-28 07:52:00,
2013-02-28 03:01:00,33.0,32.0,29.53,WNW,296,0.0,2.0,96,0.00,,,0.34,,2013-02-28 08:01:00,
2013-02-28 03:11:00,33.0,32.0,29.53,WNW,296,0.0,2.0,96,0.00,,,0.34,,2013-02-28 08:11:00,
2013-02-28 03:22:00,33.0,32.0,29.53,NNW,340,0.0,3.0,96,0.00,,,0.34,,2013-02-28 08:22:00,
2013-02-28 03:32:00,33.0,32.0,29.53,NNW,335,1.0,2.0,96,0.00,,,0.34,,2013-02-28 08:32:00,
2013-02-28 03:42:00,33.0,32.0,29.53,NNW,335,1.0,2.0,96,0.00,,,0.34,,2013-02-28 08:42:00,
2013-02-28 03:53:00,33.0,32.0,29.54,NW,304,0.0,6.0,96,0.00,,,0.34,,2013-02-28 08:53:00,
2013-02-28 04:03:00,33.0,32.0,29.54,North,5,0.0,3.0,96,0.00,,,0.34,,2013-02-28 09:03:00,
2013-02-28 04:12:00,33.0,32.0,29.54,North,5,0.0,3.0,96,0.00,,,0.34,,2013-02-28 09:12:00,
2013-02-28 04:22:00,33.0,32.0,29.54,North,9,0.0,3.0,96,0.00,,,0.34,,2013-02-28 09:22:00,
2013-02-28 04:32:00,33.0,32.0,29.54,NE,44,1.0,3.0,95,0.00,,,0.34,,2013-02-28 09:32:00,
2013-02-28 04:42:00,33.0,32.0,29.54,NE,44,1.0,3.0,95,0.00,,,0.34,,2013-02-28 09:42:00,
2013-02-28 04:52:00,33.0,32.0,29.55,NE,52,0.0,1.0,95,0.00,,,0.34,,2013-02-28 09:52:00,
2013-02-28 05:02:00,33.0,32.0,29.56,NNE,24,0.0,2.0,96,0.00,,,0.34,,2013-02-28 10:02:00,
2013-02-28 05:11:00,33.0,32.0,29.56,NW,314,0.0,3.0,96,0.00,,,0.34,,2013-02-28 10:11:00,
2013-02-28 05:22:00,33.0,32.0,29.56,NW,314,0.0,3.0,96,0.00,,,0.34,,2013-02-28 10:22:00,
2013-02-28 05:32:00,33.0,32.0,29.56,NE,48,0.0,0.0,95,0.00,,,0.34,,2013-02-28 10:32:00,
2013-02-28 05:42:00,33.0,32.0,29.56,NE,48,0.0,0.0,95,0.00,,,0.34,,2013-02-28 10:42:00,
2013-02-28 05:52:00,33.0,32.0,29.57,NNW,340,2.0,3.0,95,0.00,,,0.34,,2013-02-28 10:52:00,
2013-02-28 06:02:00,33.0,32.0,29.57,WSW,238,0.0,2.0,95,0.00,,,0.34,,2013-02-28 11:02:00,
2013-02-28 06:11:00,33.0,32.0,29.57,WSW,238,0.0,2.0,95,0.00,,,0.34,,2013-02-28 11:11:00,
2013-02-28 06:22:00,33.0,32.0,29.58,NNE,20,0.0,3.0,95,0.00,,,0.34,,2013-02-28 11:22:00,
2013-02-28 06:32:00,33.0,32.0,29.59,North,10,0.0,3.0,95,0.00,,,0.34,,2013-02-28 11:32:00,
2013-02-28 06:42:00,33.0,32.0,29.59,North,10,0.0,3.0,95,0.00,,,0.34,,2013-02-28 11:42:00,
2013-02-28 06:52:00,33.0,32.0,29.59,NNW,331,0.0,3.0,95,0.00,,,0.34,,2013-02-28 11:52:00,
2013-02-28 07:02:00,33.0,32.0,29.60,North,355,1.0,5.0,95,0.00,,,0.34,,2013-02-28 12:02:00,
2013-02-28 07:11:00,33.0,32.0,29.60,North,355,1.0,5.0,95,0.00,,,0.34,,2013-02-28 12:11:00,
2013-02-28 07:22:00,33.0,32.0,29.60,NNE,23,1.0,3.0,95,0.00,,,0.34,,2013-02-28 12:22:00,
2013-02-28 07:32:00,33.0,32.0,29.61,North,0,0.0,3.0,95,0.00,,,0.34,,2013-02-28 12:32:00,
2013-02-28 07:42:00,33.0,32.0,29.61,North,0,0.0,3.0,95,0.00,,,0.34,,2013-02-28 12:42:00,
2013-02-28 07:52:00,34.0,33.0,29.61,NNW,344,3.0,4.0,95,0.00,,,0.34,,2013-02-28 12:52:00,
2013-02-28 08:02:00,34.0,33.0,29.62,West,279,0.0,2.0,95,0.00,,,0.34,,2013-02-28 13:02:00,
2013-02-28 08:11:00,34.0,33.0,29.62,NNW,331,0.0,3.0,95,0.00,,,0.34,,2013-02-28 13:11:00,
2013-02-28 08:22:00,34.0,33.0,29.62,NNW,331,0.0,3.0,95,0.00,,,0.34,,2013-02-28 13:22:00,
2013-02-28 08:32:00,34.0,33.0,29.63,NNW,342,0.0,3.0,95,0.01,,,0.35,,2013-02-28 13:32:00,
2013-02-28 08:42:00,34.0,33.0,29.63,NNW,342,0.0,3.0,95,0.01,,,0.35,,2013-02-28 13:42:00,
2013-02-28 08:52:00,34.0,33.0,29.64,NNW,327,0.0,5.0,95,0.01,,,0.35,,2013-02-28 13:52:00,
2013-02-28 09:02:00,34.0,32.0,29.65,NNE,16,2.0,5.0,94,0.01,,,0.35,,2013-02-28 14:02:00,
2013-02-28 09:12:00,34.0,32.0,29.66,NW,306,0.0,6.0,92,0.01,,,0.35,,2013-02-28 14:12:00,
2013-02-28 09:22:00,34.0,32.0,29.66,NW,306,0.0,6.0,92,0.01,,,0.35,,2013-02-28 14:22:00,
2013-02-28 09:32:00,35.0,33.0,29.66,NNE,18,0.0,7.0,91,0.01,,,0.35,,2013-02-28 14:32:00,
2013-02-28 09:42:00,35.0,32.0,29.67,NW,313,0.0,5.0,89,0.01,,,0.35,,2013-02-28 14:42:00,
2013-02-28 09:52:00,35.0,32.0,29.67,NW,313,0.0,5.0,89,0.01,,,0.35,,2013-02-28 14:52:00,
2013-02-28 10:02:00,36.0,32.0,29.67,NNW,346,3.0,12.0,86,0.03,,,0.37,,2013-02-28 15:02:00,
2013-02-28 10:11:00,36.0,32.0,29.67,NNW,346,3.0,12.0,86,0.03,,,0.37,,2013-02-28 15:11:00,
2013-02-28 10:22:00,36.0,32.0,29.68,NNE,13,0.0,7.0,84,0.04,,,0.38,,2013-02-28 15:22:00,
2013-02-28 10:32:00,36.0,32.0,29.68,North,355,3.0,7.0,84,0.04,,,0.38,,2013-02-28 15:32:00,
2013-02-28 10:42:00,36.0,32.0,29.68,North,355,3.0,7.0,84,0.04,,,0.38,,2013-02-28 15:42:00,
2013-02-28 10:52:00,36.0,31.0,29.69,North,0,0.0,7.0,83,0.04,,,0.39,,2013-02-28 15:52:00,
2013-02-28 11:02:00,36.0,31.0,29.69,NNW,348,0.0,9.0,82,0.04,,,0.40,,2013-02-28 16:02:00,
2013-02-28 11:12:00,36.0,31.0,29.69,NNW,348,0.0,9.0,82,0.04,,,0.40,,2013-02-28 16:12:00,
2013-02-28 11:22:00,35.0,30.0,29.70,NW,312,0.0,5.0,83,0.04,,,0.41,,2013-02-28 16:22:00,
2013-02-28 11:32:00,35.0,30.0,29.70,NNW,348,2.0,8.0,83,0.03,,,0.40,,2013-02-28 16:32:00,
2013-02-28 11:42:00,35.0,30.0,29.70,NNW,348,2.0,8.0,83,0.03,,,0.40,,2013-02-28 16:42:00,
2013-02-28 11:53:00,35.0,31.0,29.71,North,11,0.0,0.0,84,0.03,,,0.40,,2013-02-28 16:53:00,
2013-02-28 12:02:00,36.0,31.0,29.72,North,0,1.0,6.0,82,0.03,,,0.40,,2013-02-28 17:02:00,
2013-02-28 12:12:00,36.0,31.0,29.72,NNE,18,0.0,6.0,81,0.02,,,0.39,,2013-02-28 17:12:00,
2013-02-28 12:22:00,36.0,31.0,29.72,NNE,18,0.0,6.0,81,0.02,,,0.39,,2013-02-28 17:22:00,
2013-02-28 12:32:00,36.0,31.0,29.72,NNW,347,2.0,4.0,81,0.03,,,0.40,,2013-02-28 17:32:00,
2013-02-28 12:42:00,36.0,31.0,29.72,NNW,347,2.0,4.0,81,0.03,,,0.40,,2013-02-28 17:42:00,
2013-02-28 12:53:00,36.0,30.0,29.73,North,5,0.0,5.0,80,0.03,,,0.41,,2013-02-28 17:53:00,
2013-02-28 13:02:00,36.0,30.0,29.73,North,0,0.0,6.0,80,0.02,,,0.39,,2013-02-28 18:02:00,
2013-02-28 13:12:00,36.0,30.0,29.73,NNE,30,1.0,7.0,80,0.02,,,0.39,,2013-02-28 18:12:00,
2013-02-28 13:22:00,36.0,30.0,29.73,NNE,30,1.0,7.0,80,0.02,,,0.39,,2013-02-28 18:22:00,
2013-02-28 13:32:00,36.0,30.0,29.73,North,0,3.0,4.0,80,0.02,,,0.38,,2013-02-28 18:32:00,
2013-02-28 13:42:00,36.0,30.0,29.73,North,0,3.0,4.0,80,0.02,,,0.38,,2013-02-28 18:42:00,
2013-02-28 13:52:00,36.0,30.0,29.73,North,0,1.0,6.0,79,0.01,,,0.37,,2013-02-28 18:52:00,
2013-02-28 14:02:00,36.0,30.0,29.74,North,9,2.0,9.0,78,0.02,,,0.37,,2013-02-28 19:02:00,
2013-02-28 14:12:00,36.0,30.0,29.74,North,9,2.0,9.0,78,0.02,,,0.37,,2013-02-28 19:12:00,
2013-02-28 14:22:00,36.0,30.0,29.74,North,355,0.0,5.0,78,0.03,,,0.36,,2013-02-28 19:22:00,
2013-02-28 14:32:00,36.0,30.0,29.74,North,0,0.0,4.0,78,0.02,,,0.35,,2013-02-28 19:32:00,
2013-02-28 14:42:00,36.0,30.0,29.74,North,0,0.0,4.0,78,0.02,,,0.35,,2013-02-28 19:42:00,
2013-02-28 14:52:00,36.0,29.0,29.75,NNW,344,0.0,4.0,77,0.03,,,0.35,,2013-02-28 19:52:00,
2013-02-28 15:01:00,36.0,30.0,29.75,NNW,336,0.0,2.0,78,0.02,,,0.34,,2013-02-28 20:01:00,
2013-02-28 15:12:00,36.0,30.0,29.75,NNW,336,0.0,2.0,78,0.02,,,0.34,,2013-02-28 20:12:00,
2013-02-28 15:22:00,36.0,30.0,29.75,North,9,1.0,3.0,78,0.02,,,0.34,,2013-02-28 20:22:00,
2013-02-28 15:32:00,36.0,30.0,29.75,North,0,0.0,1.0,78,0.02,,,0.34,,2013-02-28 20:32:00,
2013-02-28 15:42:00,36.0,30.0,29.75,North,0,0.0,1.0,78,0.02,,,0.34,,2013-02-28 20:42:00,
2013-02-28 15:52:00,36.0,30.0,29.76,North,9,2.0,4.0,78,0.01,,,0.32,,2013-02-28 20:52:00,
2013-02-28 16:02:00,36.0,29.0,29.77,NNE,13,0.0,4.0,77,0.02,,,0.33,,2013-02-28 21:02:00,
2013-02-28 16:11:00,36.0,29.0,29.77,NNE,13,0.0,4.0,77,0.02,,,0.33,,2013-02-28 21:11:00,
2013-02-28 16:22:00,36.0,29.0,29.78,NNE,29,2.0,3.0,77,0.01,,,0.32,,2013-02-28 21:22:00,
2013-02-28 16:32:00,35.0,29.0,29.78,North,5,3.0,4.0,78,0.02,,,0.32,,2013-02-28 21:32:00,
2013-02-28 16:42:00,35.0,29.0,29.78,North,5,3.0,4.0,78,0.02,,,0.32,,2013-02-28 21:42:00,
2013-02-28 16:52:00,35.0,29.0,29.79,NNE,17,2.0,3.0,79,0.02,,,0.32,,2013-02-28 21:52:00,
2013-02-28 17:01:00,35.0,29.0,29.79,North,5,1.0,6.0,78,0.01,,,0.31,,2013-02-28 22:01:00,
2013-02-28 17:11:00,35.0,29.0,29.79,North,5,1.0,6.0,78,0.01,,,0.31,,2013-02-28 22:11:00,
2013-02-28 17:22:00,35.0,29.0,29.80,NNW,345,0.0,2.0,78,0.01,,,0.30,,2013-02-28 22:22:00,
2013-02-28 17:32:00,34.0,28.0,29.80,NNW,348,2.0,6.0,78,0.00,,,0.30,,2013-02-28 22:32:00,
2013-02-28 17:42:00,34.0,28.0,29.80,NNW,348,2.0,6.0,78,0.00,,,0.30,,2013-02-28 22:42:00,
2013-02-28 17:52:00,34.0,28.0,29.81,NNW,344,1.0,2.0,78,0.01,,,0.30,,2013-02-28 22:52:00,
2013-02-28 18:01:00,34.0,28.0,29.82,NNW,348,2.0,6.0,79,0.01,,,0.29,,2013-02-28 23:01:00,
2013-02-28 18:11:00,33.0,28.0,29.83,North,355,0.0,6.0,80,0.01,,,0.29,,2013-02-28 23:11:00,
2013-02-28 18:22:00,33.0,28.0,29.83,North,355,0.0,6.0,80,0.01,,,0.29,,2013-02-28 23:22:00,
2013-02-28 18:32:00,33.0,28.0,29.84,North,0,0.0,4.0,81,0.01,,,0.29,,2013-02-28 23:32:00,
2013-02-28 18:42:00,33.0,28.0,29.84,North,0,0.0,4.0,81,0.01,,,0.29,,2013-02-28 23:42:00,
2013-02-28 18:53:00,33.0,28.0,29.85,NNE,21,0.0,4.0,80,0.00,,,0.28,,2013-02-28 23:53:00,
2013-02-28 19:02:00,32.0,26.0,29.86,North,355,0.0,6.0,78,0.00,,,0.28,,2013-03-01 00:02:00,
2013-02-28 19:11:00,32.0,26.0,29.86,North,355,0.0,6.0,78,0.00,,,0.28,,2013-03-01 00:11:00,
2013-02-28 19:22:00,32.0,26.0,29.87,North,0,0.0,5.0,78,0.00,,,0.28,,2013-03-01 00:22:00,
2013-02-28 19:32:00,32.0,26.0,29.87,NNE,28,0.0,2.0,79,0.00,,,0.27,,2013-03-01 00:32:00,
2013-02-28 19:42:00,32.0,26.0,29.87,NNE,28,0.0,2.0,79,0.00,,,0.27,,2013-03-01 00:42:00,
2013-02-28 19:52:00,32.0,27.0,29.88,North,10,2.0,6.0,80,0.00,,,0.27,,2013-03-01 00:52:00,
2013-02-28 20:01:00,32.0,27.0,29.89,North,9,1.0,6.0,80,0.00,,,0.26,,2013-03-01 01:01:00,
2013-02-28 20:11:00,32.0,27.0,29.89,ENE,57,0.0,4.0,81,0.00,,,0.26,,2013-03-01 01:11:00,
2013-02-28 20:22:00,32.0,27.0,29.89,ENE,57,0.0,4.0,81,0.00,,,0.26,,2013-03-01 01:22:00,
2013-02-28 20:32:00,31.0,26.0,29.89,North,9,3.0,10.0,81,0.00,,,0.26,,2013-03-01 01:32:00,
2013-02-28 20:42:00,31.0,26.0,29.89,North,9,3.0,10.0,81,0.00,,,0.26,,2013-03-01 01:42:00,
2013-02-28 20:52:00,31.0,26.0,29.90,NNW,329,0.0,3.0,81,0.00,,,0.26,,2013-03-01 01:52:00,
2013-02-28 21:01:00,31.0,26.0,29.90,North,0,1.0,5.0,80,0.00,,,0.25,,2013-03-01 02:01:00,
2013-02-28 21:11:00,31.0,25.0,29.91,NNE,14,0.0,4.0,79,0.00,,,0.24,,2013-03-01 02:11:00,
2013-02-28 21:21:00,31.0,25.0,29.91,NNE,14,0.0,4.0,79,0.00,,,0.24,,2013-03-01 02:21:00,
2013-02-28 21:32:00,31.0,25.0,29.92,North,0,0.0,4.0,79,0.00,,,0.24,,2013-03-01 02:32:00,
2013-02-28 21:42:00,31.0,25.0,29.92,North,0,0.0,4.0,79,0.00,,,0.24,,2013-03-01 02:42:00,
2013-02-28 21:52:00,31.0,25.0,29.92,North,5,2.0,5.0,78,0.00,,,0.24,,2013-03-01 02:52:00,
2013-02-28 22:02:00,31.0,25.0,29.92,NNE,33,0.0,3.0,77,0.00,,,0.24,,2013-03-01 03:02:00,
2013-02-28 22:11:00,31.0,25.0,29.92,North,0,0.0,4.0,78,0.00,,,0.24,,2013-03-01 03:11:00,
2013-02-28 22:22:00,31.0,25.0,29.92,North,0,0.0,4.0,78,0.00,,,0.24,,2013-03-01 03:22:00,
2013-02-28 22:32:00,30.0,24.0,29.93,North,0,2.0,4.0,77,0.00,,,0.23,,2013-03-01 03:32:00,
2013-02-28 22:42:00,30.0,24.0,29.93,North,0,2.0,4.0,77,0.00,,,0.23,,2013-03-01 03:42:00,
2013-02-28 22:52:00,30.0,23.0,29.93,North,5,2.0,5.0,76,0.00,,,0.23,,2013-03-01 03:52:00,
2013-02-28 23:01:00,30.0,23.0,29.93,North,9,0.0,8.0,76,0.00,,,0.23,,2013-03-01 04:01:00,
2013-02-28 23:11:00,30.0,23.0,29.93,North,9,0.0,8.0,76,0.00,,,0.23,,2013-03-01 04:11:00,
2013-02-28 23:22:00,30.0,23.0,29.93,NNE,18,0.0,3.0,76,0.00,,,0.23,,2013-03-01 04:22:00,
2013-02-28 23:32:00,30.0,23.0,29.93,North,9,1.0,5.0,76,0.00,,,0.22,,2013-03-01 04:32:00,
2013-02-28 23:42:00,30.0,23.0,29.93,North,9,1.0,5.0,76,0.00,,,0.22,,2013-03-01 04:42:00,
2013-02-28 23:52:00,30.0,23.0,29.93,North,0,2.0,6.0,76,0.00,,,0.22,,2013-03-01 04:52:00,